Regional Weather Roundup
Issued by NWS

Home | Current Version | Previous Version | Graphics & Text | Print | Product List | Glossary On
Versions: 1 2 3 4 5 6 7 8 9 10 11 12 13 14 15 16 17 18 19 20 21 22 23 24 25 26 27 28 29 30 31 32 33 34 35 36 37 38 39 40 41 42 43 44 45 46 47 48 49 50
000
ASUS45 KSLC 211610
RWRUT

UTAH REGIONAL WEATHER ROUNDUP
NATIONAL WEATHER SERVICE SALT LAKE CITY UT
1000 AM MDT SUN SEP 21 2014

UTZ001>011-023>025-211700-

NORTHERN UTAH

CITY           SKY/WX    TMP DP  RH WIND       PRES   REMARKS
HILL AFB       LGT RAIN  63  47  55 E12G22    30.19S
LOGAN          SUNNY     61  49  64 CALM      30.18R
OGDEN          LGT RAIN  69  42  37 SE16      30.17R
PROVO AIRPORT  LGT RAIN  63  57  82 S5        30.20R
SALT LAKE CITY CLOUDY    66  51  58 S6        30.14F
VERNAL         CLOUDY    56  49  77 SE6       30.31S
WENDOVER       CLOUDY    64  55  72 SW17      30.19R
HEBER CITY     RAIN      54  50  87 CALM      30.28S
WEST JORDAN    CLOUDY    64  55  72 CALM      30.18F

$$

UTZ012>022-026-027-211700-

SOUTHERN UTAH

CITY           SKY/WX    TMP DP  RH WIND       PRES   REMARKS
BRYCE CANYON   RAIN      54  52  93 NW3       30.37R FOG
CEDAR CITY     CLOUDY    58  56  93 N6        30.24R
MILFORD        LGT RAIN  59  56  89 NE9       30.22F
MOAB/CYNLANDS  MOSUNNY   77  50  38 E18       30.15R
PRICE          CLOUDY    61  55  81 NW7       30.28R
ST GEORGE      CLOUDY    70  61  73 CALM      30.11R
KANAB          PTSUNNY   61  61 100 N3        30.26R

$$

REGIONAL REPORTS     COLORADO/ARIZONA

CITY           SKY/WX    TMP DP  RH WIND       PRES   REMARKS
CRAIG, CO      CLOUDY    55  39  54 NW3       30.36R
GRAND JUNCTION LGT RAIN  60  57  89 E17       30.27F
RIFLE          LGT RAIN  60  50  69 CALM      30.36R
MONTROSE       CLOUDY    61  57  87 W6        30.38S
CORTEZ         LGT RAIN  71  57  61 S17G30    30.30F
PAGE, AZ       CLOUDY    68  60  75 CALM      30.17S
GRAND CANYON   PTSUNNY   66  55  67 SW8       30.30R
KINGMAN        SUNNY     79  54  41 N5        30.07S
FLAGSTAFF      SUNNY     64  55  72 SW6       30.33R

$$

REGIONAL REPORTS    NEVADA/IDAHO/WYOMING

CITY           SKY/WX    TMP DP  RH WIND       PRES   REMARKS
LAS VEGAS, NV  MOSUNNY   79  58  48 VRB3      29.98S
ELY            CLOUDY    55  51  86 CALM      30.24S
ELKO           CLOUDY    57  53  86 SW6       30.20R
POCATELLO, ID  SUNNY     63  47  55 N5        30.16S
BURLEY         CLOUDY    58  47  66 S3        30.13R
EVANSTON, WY   LGT RAIN  53  42  66 E8        30.37R
ROCK SPRINGS   CLOUDY    56  36  47 E13       30.37S

$$



USA.gov is the U.S. government's official web portal to all federal, state and local government web resources and services.